Year,Month,Day,Hour,Minute,Value (Times are PST for temperature in C)
2016,05,18,00,00,12.70
2016,05,18,00,01,12.60
2016,05,18,00,02,12.60
2016,05,18,00,03,12.60
2016,05,18,00,04,12.60
2016,05,18,00,05,12.60
2016,05,18,00,06,12.60
2016,05,18,00,07,12.60
2016,05,18,00,08,12.60
2016,05,18,00,09,12.60
2016,05,18,00,10,12.60
2016,05,18,00,11,12.60
2016,05,18,00,12,12.60
2016,05,18,00,13,12.60
2016,05,18,00,14,12.60
2016,05,18,00,15,12.60
2016,05,18,00,16,12.60
2016,05,18,00,17,12.60
2016,05,18,00,18,12.60
2016,05,18,00,19,12.60
2016,05,18,00,20,12.60
2016,05,18,00,21,12.60
2016,05,18,00,22,12.60
2016,05,18,00,23,12.60
2016,05,18,00,24,12.60
2016,05,18,00,25,12.60
2016,05,18,00,26,12.60
2016,05,18,00,27,12.60
2016,05,18,00,28,12.60
2016,05,18,00,29,12.50
2016,05,18,00,30,12.50
2016,05,18,00,31,12.50
2016,05,18,00,32,12.50
2016,05,18,00,33,12.50
2016,05,18,00,34,12.50
2016,05,18,00,35,12.50
2016,05,18,00,36,12.50
2016,05,18,00,37,12.40
2016,05,18,00,38,12.40
2016,05,18,00,39,12.40
2016,05,18,00,40,12.40
2016,05,18,00,41,12.40
2016,05,18,00,42,12.40
2016,05,18,00,43,12.40
2016,05,18,00,44,12.40
2016,05,18,00,45,12.40
2016,05,18,00,46,12.40
2016,05,18,00,47,12.40
2016,05,18,00,48,12.40
2016,05,18,00,49,12.40
2016,05,18,00,50,12.40
2016,05,18,00,51,12.40
2016,05,18,00,52,12.40
2016,05,18,00,53,12.40
2016,05,18,00,54,12.40
2016,05,18,00,55,12.40
2016,05,18,00,56,12.40
2016,05,18,00,57,12.40
2016,05,18,00,58,12.40
2016,05,18,00,59,12.40
2016,05,18,01,00,12.40
2016,05,18,01,01,12.40
2016,05,18,01,02,12.40
2016,05,18,01,03,12.40
2016,05,18,01,04,12.40
2016,05,18,01,05,12.40
2016,05,18,01,06,12.40
2016,05,18,01,07,12.40
2016,05,18,01,08,12.40
2016,05,18,01,09,12.40
2016,05,18,01,10,12.40
2016,05,18,01,11,12.40
2016,05,18,01,12,12.40
2016,05,18,01,13,12.40
2016,05,18,01,14,12.40
2016,05,18,01,15,12.40
2016,05,18,01,16,12.40
2016,05,18,01,17,12.40
2016,05,18,01,18,12.40
2016,05,18,01,19,12.40
2016,05,18,01,20,12.40
2016,05,18,01,21,12.40
2016,05,18,01,22,12.50
2016,05,18,01,23,12.50
2016,05,18,01,24,12.50
2016,05,18,01,25,12.50
2016,05,18,01,26,12.50
2016,05,18,01,27,12.50
2016,05,18,01,28,12.50
2016,05,18,01,29,12.60
2016,05,18,01,30,12.60
2016,05,18,01,31,12.60
2016,05,18,01,32,12.60
2016,05,18,01,33,12.60
2016,05,18,01,34,12.60
2016,05,18,01,35,12.60
2016,05,18,01,36,12.50
2016,05,18,01,37,12.50
2016,05,18,01,38,12.50
2016,05,18,01,39,12.50
2016,05,18,01,40,12.50
2016,05,18,01,41,12.50
2016,05,18,01,42,12.50
2016,05,18,01,43,12.50
2016,05,18,01,44,12.50
2016,05,18,01,45,12.50
2016,05,18,01,46,12.40
2016,05,18,01,47,12.40
2016,05,18,01,48,12.40
2016,05,18,01,49,12.40
2016,05,18,01,50,12.40
2016,05,18,01,51,12.40
2016,05,18,01,52,12.40
2016,05,18,01,53,12.40
2016,05,18,01,54,12.40
2016,05,18,01,55,12.30
2016,05,18,01,56,12.30
2016,05,18,01,57,12.30
2016,05,18,01,58,12.30
2016,05,18,01,59,12.30
2016,05,18,02,00,12.30
2016,05,18,02,01,12.30
2016,05,18,02,02,12.30
2016,05,18,02,03,12.30
2016,05,18,02,04,12.30
2016,05,18,02,05,12.30
2016,05,18,02,06,12.30
2016,05,18,02,07,12.30
2016,05,18,02,08,12.30
2016,05,18,02,09,12.30
2016,05,18,02,10,12.30
2016,05,18,02,11,12.30
2016,05,18,02,12,12.20
2016,05,18,02,13,12.20
2016,05,18,02,14,12.20
2016,05,18,02,15,12.20
2016,05,18,02,16,12.20
2016,05,18,02,17,12.20
2016,05,18,02,18,12.20
2016,05,18,02,19,12.20
2016,05,18,02,20,12.20
2016,05,18,02,21,12.20
2016,05,18,02,22,12.20
2016,05,18,02,23,12.20
2016,05,18,02,24,12.20
2016,05,18,02,25,12.20
2016,05,18,02,26,12.20
2016,05,18,02,27,12.20
2016,05,18,02,28,12.20
2016,05,18,02,29,12.20
2016,05,18,02,30,12.10
2016,05,18,02,31,12.10
2016,05,18,02,32,12.10
2016,05,18,02,33,12.10
2016,05,18,02,34,12.10
2016,05,18,02,35,12.00
2016,05,18,02,36,12.00
2016,05,18,02,37,12.00
2016,05,18,02,38,12.00
2016,05,18,02,39,12.00
2016,05,18,02,40,11.90
2016,05,18,02,41,11.90
2016,05,18,02,42,11.90
2016,05,18,02,43,11.90
2016,05,18,02,44,11.90
2016,05,18,02,45,11.90
2016,05,18,02,46,11.90
2016,05,18,02,47,11.90
2016,05,18,02,48,11.80
2016,05,18,02,49,11.80
2016,05,18,02,50,11.80
2016,05,18,02,51,11.80
2016,05,18,02,52,11.80
2016,05,18,02,53,11.80
2016,05,18,02,54,11.80
2016,05,18,02,55,11.80
2016,05,18,02,56,11.80
2016,05,18,02,57,11.80
2016,05,18,02,58,11.80
2016,05,18,02,59,11.80
2016,05,18,03,00,11.80
2016,05,18,03,01,11.80
2016,05,18,03,02,11.80
2016,05,18,03,03,11.70
2016,05,18,03,04,11.70
2016,05,18,03,05,11.70
2016,05,18,03,06,11.70
2016,05,18,03,07,11.70
2016,05,18,03,08,11.70
2016,05,18,03,09,11.70
2016,05,18,03,10,11.70
2016,05,18,03,11,11.70
2016,05,18,03,12,11.60
2016,05,18,03,13,11.60
2016,05,18,03,14,11.60
2016,05,18,03,15,11.60
2016,05,18,03,16,11.50
2016,05,18,03,17,11.50
2016,05,18,03,18,11.50
2016,05,18,03,19,11.40
2016,05,18,03,20,11.40
2016,05,18,03,21,11.40
2016,05,18,03,22,11.40
2016,05,18,03,23,11.40
2016,05,18,03,24,11.40
2016,05,18,03,25,11.40
2016,05,18,03,26,11.40
2016,05,18,03,27,11.30
2016,05,18,03,28,11.30
2016,05,18,03,29,11.30
2016,05,18,03,30,11.30
2016,05,18,03,31,11.30
2016,05,18,03,32,11.30
2016,05,18,03,33,11.30
2016,05,18,03,34,11.30
2016,05,18,03,35,11.30
2016,05,18,03,36,11.30
2016,05,18,03,37,11.20
2016,05,18,03,38,11.20
2016,05,18,03,39,11.20
2016,05,18,03,40,11.20
2016,05,18,03,41,11.20
2016,05,18,03,42,11.20
2016,05,18,03,43,11.10
2016,05,18,03,44,11.10
2016,05,18,03,45,11.10
2016,05,18,03,46,11.10
2016,05,18,03,47,11.10
2016,05,18,03,48,11.10
2016,05,18,03,49,11.10
2016,05,18,03,50,11.10
2016,05,18,03,51,11.10
2016,05,18,03,52,11.10
2016,05,18,03,53,11.10
2016,05,18,03,54,11.10
2016,05,18,03,55,11.10
2016,05,18,03,56,11.10
2016,05,18,03,57,11.10
2016,05,18,03,58,11.10
2016,05,18,03,59,11.10
2016,05,18,04,00,11.10
2016,05,18,04,01,11.10
2016,05,18,04,02,11.10
2016,05,18,04,03,11.10
2016,05,18,04,04,11.10
2016,05,18,04,05,11.10
2016,05,18,04,06,11.10
2016,05,18,04,07,11.10
2016,05,18,04,08,11.20
2016,05,18,04,09,11.20
2016,05,18,04,10,11.20
2016,05,18,04,11,11.20
2016,05,18,04,12,11.20
2016,05,18,04,13,11.20
2016,05,18,04,14,11.20
2016,05,18,04,15,11.20
2016,05,18,04,16,11.20
2016,05,18,04,17,11.20
2016,05,18,04,18,11.20
2016,05,18,04,19,11.20
2016,05,18,04,20,11.20
2016,05,18,04,21,11.10
2016,05,18,04,22,11.10
2016,05,18,04,23,11.10
2016,05,18,04,24,11.10
2016,05,18,04,25,11.10
2016,05,18,04,26,11.10
2016,05,18,04,27,11.10
2016,05,18,04,28,11.10
2016,05,18,04,29,11.10
2016,05,18,04,30,11.10
2016,05,18,04,31,11.10
2016,05,18,04,32,11.20
2016,05,18,04,33,11.10
2016,05,18,04,34,11.20
2016,05,18,04,35,11.20
2016,05,18,04,36,11.20
2016,05,18,04,37,11.20
2016,05,18,04,38,11.20
2016,05,18,04,39,11.20
2016,05,18,04,40,11.20
2016,05,18,04,41,11.20
2016,05,18,04,42,11.20
2016,05,18,04,43,11.20
2016,05,18,04,44,11.20
2016,05,18,04,45,11.20
2016,05,18,04,46,11.20
2016,05,18,04,47,11.20
2016,05,18,04,48,11.20
2016,05,18,04,49,11.20
2016,05,18,04,50,11.20
2016,05,18,04,51,11.20
2016,05,18,04,52,11.20
2016,05,18,04,53,11.20
2016,05,18,04,54,11.20
2016,05,18,04,55,11.20
2016,05,18,04,56,11.20
2016,05,18,04,57,11.20
2016,05,18,04,58,11.20
2016,05,18,04,59,11.20
2016,05,18,05,00,11.20
2016,05,18,05,01,11.20
2016,05,18,05,02,11.20
2016,05,18,05,03,11.20
2016,05,18,05,04,11.20
2016,05,18,05,05,11.20
2016,05,18,05,06,11.20
2016,05,18,05,07,11.20
2016,05,18,05,08,11.20
2016,05,18,05,09,11.20
2016,05,18,05,10,11.10
2016,05,18,05,11,11.10
2016,05,18,05,12,11.10
2016,05,18,05,13,11.10
2016,05,18,05,14,11.00
2016,05,18,05,15,11.00
2016,05,18,05,16,11.00
2016,05,18,05,17,10.90
2016,05,18,05,18,10.90
2016,05,18,05,19,10.90
2016,05,18,05,20,10.80
2016,05,18,05,21,10.80
2016,05,18,05,22,10.80
2016,05,18,05,23,10.70
2016,05,18,05,24,10.70
2016,05,18,05,25,10.60
2016,05,18,05,26,10.60
2016,05,18,05,27,10.60
2016,05,18,05,28,10.50
2016,05,18,05,29,10.50
2016,05,18,05,30,10.40
2016,05,18,05,31,10.40
2016,05,18,05,32,10.40
2016,05,18,05,33,10.40
2016,05,18,05,34,10.30
2016,05,18,05,35,10.30
2016,05,18,05,36,10.30
2016,05,18,05,37,10.30
2016,05,18,05,38,10.30
2016,05,18,05,39,10.20
2016,05,18,05,40,10.20
2016,05,18,05,41,10.20
2016,05,18,05,42,10.20
2016,05,18,05,43,10.20
2016,05,18,05,44,10.20
2016,05,18,05,45,10.20
2016,05,18,05,46,10.20
2016,05,18,05,47,10.20
2016,05,18,05,48,10.20
2016,05,18,05,49,10.20
2016,05,18,05,50,10.20
2016,05,18,05,51,10.20
2016,05,18,05,52,10.20
2016,05,18,05,53,10.20
2016,05,18,05,54,10.20
2016,05,18,05,55,10.20
2016,05,18,05,56,10.20
2016,05,18,05,57,10.20
2016,05,18,05,58,10.20
2016,05,18,05,59,10.20
2016,05,18,06,00,10.20
2016,05,18,06,01,10.20
2016,05,18,06,02,10.20
2016,05,18,06,03,10.20
2016,05,18,06,04,10.20
2016,05,18,06,05,10.20
2016,05,18,06,06,10.20
2016,05,18,06,07,10.20
2016,05,18,06,08,10.20
2016,05,18,06,09,10.30
2016,05,18,06,10,10.30
2016,05,18,06,11,10.30
2016,05,18,06,12,10.30
2016,05,18,06,13,10.30
2016,05,18,06,14,10.40
2016,05,18,06,15,10.40
2016,05,18,06,16,10.40
2016,05,18,06,17,10.50
2016,05,18,06,18,10.50
2016,05,18,06,19,10.60
2016,05,18,06,20,10.60
2016,05,18,06,21,10.60
2016,05,18,06,22,10.70
2016,05,18,06,23,10.70
2016,05,18,06,24,10.80
2016,05,18,06,25,10.80
2016,05,18,06,26,10.80
2016,05,18,06,27,10.90
2016,05,18,06,28,10.90
2016,05,18,06,29,10.90
2016,05,18,06,30,10.90
2016,05,18,06,31,11.00
2016,05,18,06,32,11.00
2016,05,18,06,33,11.10
2016,05,18,06,34,11.10
2016,05,18,06,35,11.10
2016,05,18,06,36,11.10
2016,05,18,06,37,11.20
2016,05,18,06,38,11.20
2016,05,18,06,39,11.20
2016,05,18,06,40,11.20
2016,05,18,06,41,11.30
2016,05,18,06,42,11.30
2016,05,18,06,43,11.40
2016,05,18,06,44,11.40
2016,05,18,06,45,11.40
2016,05,18,06,46,11.50
2016,05,18,06,47,11.50
2016,05,18,06,48,11.60
2016,05,18,06,49,11.60
2016,05,18,06,50,11.60
2016,05,18,06,51,11.70
2016,05,18,06,52,11.70
2016,05,18,06,53,11.80
2016,05,18,06,54,11.80
2016,05,18,06,55,11.80
2016,05,18,06,56,11.90
2016,05,18,06,57,11.90
2016,05,18,06,58,11.90
2016,05,18,06,59,12.00
2016,05,18,07,00,12.00
2016,05,18,07,01,12.00
2016,05,18,07,02,12.10
2016,05,18,07,03,12.10
2016,05,18,07,04,12.10
2016,05,18,07,05,12.10
2016,05,18,07,06,12.20
2016,05,18,07,07,12.20
2016,05,18,07,08,12.20
2016,05,18,07,09,12.20
2016,05,18,07,10,12.30
2016,05,18,07,11,12.30
2016,05,18,07,12,12.30
2016,05,18,07,13,12.30
2016,05,18,07,14,12.30
2016,05,18,07,15,12.40
2016,05,18,07,16,12.40
2016,05,18,07,17,12.40
2016,05,18,07,18,12.40
2016,05,18,07,19,12.40
2016,05,18,07,20,12.50
2016,05,18,07,21,12.50
2016,05,18,07,22,12.50
2016,05,18,07,23,12.60
2016,05,18,07,24,12.60
2016,05,18,07,25,12.60
2016,05,18,07,26,12.70
2016,05,18,07,27,12.70
2016,05,18,07,28,12.80
2016,05,18,07,29,12.80
2016,05,18,07,30,12.80
2016,05,18,07,31,12.90
2016,05,18,07,32,12.90
2016,05,18,07,33,13.00
2016,05,18,07,34,13.00
2016,05,18,07,35,13.10
2016,05,18,07,36,13.10
2016,05,18,07,37,13.10
2016,05,18,07,38,13.10
2016,05,18,07,39,13.20
2016,05,18,07,40,13.20
2016,05,18,07,41,13.20
2016,05,18,07,42,13.20
2016,05,18,07,43,13.20
2016,05,18,07,44,13.20
2016,05,18,07,45,13.20
2016,05,18,07,46,13.20
2016,05,18,07,47,13.20
2016,05,18,07,48,13.20
2016,05,18,07,49,13.20
2016,05,18,07,50,13.20
2016,05,18,07,51,13.20
2016,05,18,07,52,13.20
2016,05,18,07,53,13.20
2016,05,18,07,54,13.20
2016,05,18,07,55,13.20
2016,05,18,07,56,13.20
2016,05,18,07,57,13.30
2016,05,18,07,58,13.30
2016,05,18,07,59,13.30
2016,05,18,08,00,13.30
2016,05,18,08,01,13.30
2016,05,18,08,02,13.30
2016,05,18,08,03,13.30
2016,05,18,08,04,13.30
2016,05,18,08,05,13.30
2016,05,18,08,06,13.30
2016,05,18,08,07,13.30
2016,05,18,08,08,13.30
2016,05,18,08,09,13.40
2016,05,18,08,10,13.40
2016,05,18,08,11,13.50
2016,05,18,08,12,13.50
2016,05,18,08,13,13.60
2016,05,18,08,14,13.60
2016,05,18,08,15,13.70
2016,05,18,08,16,13.70
2016,05,18,08,17,13.80
2016,05,18,08,18,13.80
2016,05,18,08,19,13.80
2016,05,18,08,20,13.90
2016,05,18,08,21,14.00
2016,05,18,08,22,14.00
2016,05,18,08,23,14.10
2016,05,18,08,24,14.10
2016,05,18,08,25,14.10
2016,05,18,08,26,14.20
2016,05,18,08,27,14.20
2016,05,18,08,28,14.20
2016,05,18,08,29,14.30
2016,05,18,08,30,14.30
2016,05,18,08,31,14.30
2016,05,18,08,32,14.40
2016,05,18,08,33,14.40
2016,05,18,08,34,14.50
2016,05,18,08,35,14.50
2016,05,18,08,36,14.60
2016,05,18,08,37,14.70
2016,05,18,08,38,14.70
2016,05,18,08,39,14.80
2016,05,18,08,40,14.80
2016,05,18,08,41,14.90
2016,05,18,08,42,15.00
2016,05,18,08,43,15.00
2016,05,18,08,44,15.10
2016,05,18,08,45,15.20
2016,05,18,08,46,15.30
2016,05,18,08,47,15.30
2016,05,18,08,48,15.30
2016,05,18,08,49,15.30
2016,05,18,08,50,15.30
2016,05,18,08,51,15.30
2016,05,18,08,52,15.30
2016,05,18,08,53,15.30
2016,05,18,08,54,15.40
2016,05,18,08,55,15.40
2016,05,18,08,56,15.50
2016,05,18,08,57,15.60
2016,05,18,08,58,15.60
2016,05,18,08,59,15.60
2016,05,18,09,00,15.70
2016,05,18,09,01,15.70
2016,05,18,09,02,15.70
2016,05,18,09,03,15.70
2016,05,18,09,04,15.70
2016,05,18,09,05,15.70
2016,05,18,09,06,15.70
2016,05,18,09,07,15.70
2016,05,18,09,08,15.80
2016,05,18,09,09,15.90
2016,05,18,09,10,16.00
2016,05,18,09,11,16.10
2016,05,18,09,12,16.20
2016,05,18,09,13,16.20
2016,05,18,09,14,16.30
2016,05,18,09,15,16.40
2016,05,18,09,16,16.40
2016,05,18,09,17,16.50
2016,05,18,09,18,16.50
2016,05,18,09,19,16.50
2016,05,18,09,20,16.60
2016,05,18,09,21,16.60
2016,05,18,09,22,16.70
2016,05,18,09,23,16.70
2016,05,18,09,24,16.70
2016,05,18,09,25,16.80
2016,05,18,09,26,17.00
2016,05,18,09,27,17.10
2016,05,18,09,28,17.20
2016,05,18,09,29,17.30
2016,05,18,09,30,17.40
2016,05,18,09,31,17.50
2016,05,18,09,32,17.60
2016,05,18,09,33,17.70
2016,05,18,09,34,17.70
2016,05,18,09,35,17.80
2016,05,18,09,36,17.80
2016,05,18,09,37,17.70
2016,05,18,09,38,17.70
2016,05,18,09,39,17.80
2016,05,18,09,40,17.70
2016,05,18,09,41,17.70
2016,05,18,09,42,17.60
2016,05,18,09,43,17.60
2016,05,18,09,44,17.50
2016,05,18,09,45,17.50
2016,05,18,09,46,17.40
2016,05,18,09,47,17.30
2016,05,18,09,48,17.20
2016,05,18,09,49,17.20
2016,05,18,09,50,17.20
2016,05,18,09,51,17.30
2016,05,18,09,52,17.40
2016,05,18,09,53,17.50
2016,05,18,09,54,17.50
2016,05,18,09,55,17.50
2016,05,18,09,56,17.40
2016,05,18,09,57,17.40
2016,05,18,09,58,17.40
2016,05,18,09,59,17.50
2016,05,18,10,00,17.50
2016,05,18,10,01,17.40
2016,05,18,10,02,17.40
2016,05,18,10,03,17.30
2016,05,18,10,04,17.20
2016,05,18,10,05,17.20
2016,05,18,10,06,17.20
2016,05,18,10,07,17.10
2016,05,18,10,08,17.10
2016,05,18,10,09,17.00
2016,05,18,10,10,16.90
2016,05,18,10,11,16.90
2016,05,18,10,12,16.90
2016,05,18,10,13,16.90
2016,05,18,10,14,16.90
2016,05,18,10,15,16.90
2016,05,18,10,16,16.90
2016,05,18,10,17,16.90
2016,05,18,10,18,16.90
2016,05,18,10,19,16.90
2016,05,18,10,20,17.00
2016,05,18,10,21,17.00
2016,05,18,10,22,17.10
2016,05,18,10,23,17.10
2016,05,18,10,24,17.20
2016,05,18,10,25,17.20
2016,05,18,10,26,17.20
2016,05,18,10,27,17.20
2016,05,18,10,28,17.30
2016,05,18,10,29,17.30
2016,05,18,10,30,17.30
2016,05,18,10,31,17.40
2016,05,18,10,32,17.40
2016,05,18,10,33,17.40
2016,05,18,10,34,17.40
2016,05,18,10,35,17.40
2016,05,18,10,36,17.40
2016,05,18,10,37,17.50
2016,05,18,10,38,17.50
2016,05,18,10,39,17.50
2016,05,18,10,40,17.50
2016,05,18,10,41,17.50
2016,05,18,10,42,17.50
2016,05,18,10,43,17.60
2016,05,18,10,44,17.60
2016,05,18,10,45,17.60
2016,05,18,10,46,17.70
2016,05,18,10,47,17.80
2016,05,18,10,48,17.80
2016,05,18,10,49,17.80
2016,05,18,10,50,17.70
2016,05,18,10,51,17.50
2016,05,18,10,52,17.40
2016,05,18,10,53,17.40
2016,05,18,10,54,17.40
2016,05,18,10,55,17.30
2016,05,18,10,56,17.30
2016,05,18,10,57,17.40
2016,05,18,10,58,17.40
2016,05,18,10,59,17.50
2016,05,18,11,00,17.50
2016,05,18,11,01,17.60
2016,05,18,11,02,17.60
2016,05,18,11,03,17.70
2016,05,18,11,04,17.70
2016,05,18,11,05,17.80
2016,05,18,11,06,17.80
2016,05,18,11,07,17.90
2016,05,18,11,08,17.80
2016,05,18,11,09,17.80
2016,05,18,11,10,17.70
2016,05,18,11,11,17.70
2016,05,18,11,12,17.70
2016,05,18,11,13,17.70
2016,05,18,11,14,17.80
2016,05,18,11,15,17.80
2016,05,18,11,16,17.90
2016,05,18,11,17,17.90
2016,05,18,11,18,18.00
2016,05,18,11,19,18.00
2016,05,18,11,20,17.90
2016,05,18,11,21,17.80
2016,05,18,11,22,17.80
2016,05,18,11,23,17.80
2016,05,18,11,24,17.80
2016,05,18,11,25,17.70
2016,05,18,11,26,17.60
2016,05,18,11,27,17.60
2016,05,18,11,28,17.50
2016,05,18,11,29,17.40
2016,05,18,11,30,17.40
2016,05,18,11,31,17.40
2016,05,18,11,32,17.40
2016,05,18,11,33,17.50
2016,05,18,11,34,17.60
2016,05,18,11,35,17.60
2016,05,18,11,36,17.60
2016,05,18,11,37,17.60
2016,05,18,11,38,17.70
2016,05,18,11,39,17.60
2016,05,18,11,40,17.60
2016,05,18,11,41,17.60
2016,05,18,11,42,17.60
2016,05,18,11,43,17.70
2016,05,18,11,44,17.70
2016,05,18,11,45,17.70
2016,05,18,11,46,17.70
2016,05,18,11,47,17.70
2016,05,18,11,48,17.70
2016,05,18,11,49,17.70
2016,05,18,11,50,17.80
2016,05,18,11,51,17.80
2016,05,18,11,52,17.80
2016,05,18,11,53,17.80
2016,05,18,11,54,17.80
2016,05,18,11,55,17.80
2016,05,18,11,56,17.80
2016,05,18,11,57,17.80
2016,05,18,11,58,17.70
2016,05,18,11,59,17.70
2016,05,18,12,00,17.70
2016,05,18,12,01,17.70
2016,05,18,12,02,17.60
2016,05,18,12,03,17.60
2016,05,18,12,04,17.70
2016,05,18,12,05,17.60
2016,05,18,12,06,17.60
2016,05,18,12,07,17.60
2016,05,18,12,08,17.60
2016,05,18,12,09,17.60
2016,05,18,12,10,17.60
2016,05,18,12,11,17.60
2016,05,18,12,12,17.60
2016,05,18,12,13,17.40
2016,05,18,12,14,17.30
2016,05,18,12,15,17.20
2016,05,18,12,16,17.20
2016,05,18,12,17,17.10
2016,05,18,12,18,17.20
2016,05,18,12,19,17.20
2016,05,18,12,20,17.20
2016,05,18,12,21,17.20
2016,05,18,12,22,17.20
2016,05,18,12,23,17.20
2016,05,18,12,24,17.20
2016,05,18,12,25,17.20
2016,05,18,12,26,17.20
2016,05,18,12,27,17.20
2016,05,18,12,28,17.20
2016,05,18,12,29,17.20
2016,05,18,12,30,17.20
2016,05,18,12,31,17.30
2016,05,18,12,32,17.20
2016,05,18,12,33,17.20
2016,05,18,12,34,17.30
2016,05,18,12,35,17.30
2016,05,18,12,36,17.40
2016,05,18,12,37,17.50
2016,05,18,12,38,17.60
2016,05,18,12,39,17.70
2016,05,18,12,40,17.80
2016,05,18,12,41,17.90
2016,05,18,12,42,18.10
2016,05,18,12,43,18.20
2016,05,18,12,44,18.40
2016,05,18,12,45,18.50
2016,05,18,12,46,18.50
2016,05,18,12,47,18.60
2016,05,18,12,48,18.60
2016,05,18,12,49,18.70
2016,05,18,12,50,18.60
2016,05,18,12,51,18.50
2016,05,18,12,52,18.50
2016,05,18,12,53,18.50
2016,05,18,12,54,18.40
2016,05,18,12,55,18.40
2016,05,18,12,56,18.40
2016,05,18,12,57,18.30
2016,05,18,12,58,18.10
2016,05,18,12,59,18.10
2016,05,18,13,00,18.10
2016,05,18,13,01,18.00
2016,05,18,13,02,17.90
2016,05,18,13,03,17.80
2016,05,18,13,04,17.70
2016,05,18,13,05,17.60
2016,05,18,13,06,17.40
2016,05,18,13,07,17.30
2016,05,18,13,08,17.10
2016,05,18,13,09,17.00
2016,05,18,13,10,16.90
2016,05,18,13,11,16.90
2016,05,18,13,12,16.80
2016,05,18,13,13,16.70
2016,05,18,13,14,16.60
2016,05,18,13,15,16.60
2016,05,18,13,16,16.50
2016,05,18,13,17,16.50
2016,05,18,13,18,16.40
2016,05,18,13,19,16.40
2016,05,18,13,20,16.40
2016,05,18,13,21,16.40
2016,05,18,13,22,16.50
2016,05,18,13,23,16.60
2016,05,18,13,24,16.60
2016,05,18,13,25,16.70
2016,05,18,13,26,16.70
2016,05,18,13,27,16.70
2016,05,18,13,28,16.70
2016,05,18,13,29,16.70
2016,05,18,13,30,16.60
2016,05,18,13,31,16.60
2016,05,18,13,32,16.60
2016,05,18,13,33,16.70
2016,05,18,13,34,16.60
2016,05,18,13,35,16.60
2016,05,18,13,36,16.60
2016,05,18,13,37,16.60
2016,05,18,13,38,16.60
2016,05,18,13,39,16.60
2016,05,18,13,40,16.50
2016,05,18,13,41,16.50
2016,05,18,13,42,16.50
2016,05,18,13,43,16.50
2016,05,18,13,44,16.50
2016,05,18,13,45,16.50
2016,05,18,13,46,16.50
2016,05,18,13,47,16.40
2016,05,18,13,48,16.40
2016,05,18,13,49,16.40
2016,05,18,13,50,16.40
2016,05,18,13,51,16.30
2016,05,18,13,52,16.30
2016,05,18,13,53,16.20
2016,05,18,13,54,16.20
2016,05,18,13,55,16.20
2016,05,18,13,56,16.10
2016,05,18,13,57,16.10
2016,05,18,13,58,16.10
2016,05,18,13,59,16.10
2016,05,18,14,00,16.10
2016,05,18,14,01,16.10
2016,05,18,14,02,16.10
2016,05,18,14,03,16.10
2016,05,18,14,04,16.10
2016,05,18,14,05,16.00
2016,05,18,14,06,16.00
2016,05,18,14,07,16.00
2016,05,18,14,08,15.90
2016,05,18,14,09,15.90
2016,05,18,14,10,15.90
2016,05,18,14,11,15.90
2016,05,18,14,12,15.90
2016,05,18,14,13,15.80
2016,05,18,14,14,15.80
2016,05,18,14,15,15.80
2016,05,18,14,16,15.70
2016,05,18,14,17,15.70
2016,05,18,14,18,15.70
2016,05,18,14,19,15.70
2016,05,18,14,20,15.70
2016,05,18,14,21,15.70
2016,05,18,14,22,15.70
2016,05,18,14,23,15.70
2016,05,18,14,24,15.70
2016,05,18,14,25,15.70
2016,05,18,14,26,15.70
2016,05,18,14,27,15.70
2016,05,18,14,28,15.70
2016,05,18,14,29,15.70
2016,05,18,14,30,15.70
2016,05,18,14,31,15.70
2016,05,18,14,32,15.70
2016,05,18,14,33,15.70
2016,05,18,14,34,15.70
2016,05,18,14,35,15.70
2016,05,18,14,36,15.70
2016,05,18,14,37,15.70
2016,05,18,14,38,15.70
2016,05,18,14,39,15.70
2016,05,18,14,40,15.70
2016,05,18,14,41,15.70
2016,05,18,14,42,15.70
2016,05,18,14,43,15.70
2016,05,18,14,44,15.60
2016,05,18,14,45,15.60
2016,05,18,14,46,15.60
2016,05,18,14,47,15.60
2016,05,18,14,48,15.60
2016,05,18,14,49,15.60
2016,05,18,14,50,15.60
2016,05,18,14,51,15.60
2016,05,18,14,52,15.60
2016,05,18,14,53,15.60
2016,05,18,14,54,15.60
2016,05,18,14,55,15.60
2016,05,18,14,56,15.60
2016,05,18,14,57,15.70
2016,05,18,14,58,15.60
2016,05,18,14,59,15.60
2016,05,18,15,00,15.60
2016,05,18,15,01,15.50
2016,05,18,15,02,15.50
2016,05,18,15,03,15.50
2016,05,18,15,04,15.40
2016,05,18,15,05,15.40
2016,05,18,15,06,15.30
2016,05,18,15,07,15.30
2016,05,18,15,08,15.30
2016,05,18,15,09,15.30
2016,05,18,15,10,15.30
2016,05,18,15,11,15.30
2016,05,18,15,12,15.30
2016,05,18,15,13,15.30
2016,05,18,15,14,15.30
2016,05,18,15,15,15.30
2016,05,18,15,16,15.30
2016,05,18,15,17,15.40
2016,05,18,15,18,15.40
2016,05,18,15,19,15.50
2016,05,18,15,20,15.50
2016,05,18,15,21,15.60
2016,05,18,15,22,15.60
2016,05,18,15,23,15.70
2016,05,18,15,24,15.70
2016,05,18,15,25,15.80
2016,05,18,15,26,15.80
2016,05,18,15,27,15.80
2016,05,18,15,28,15.80
2016,05,18,15,29,15.80
2016,05,18,15,30,15.80
2016,05,18,15,31,15.80
2016,05,18,15,32,15.80
2016,05,18,15,33,15.80
2016,05,18,15,34,15.80
2016,05,18,15,35,15.70
2016,05,18,15,36,15.70
2016,05,18,15,37,15.70
2016,05,18,15,38,15.60
2016,05,18,15,39,15.60
2016,05,18,15,40,15.50
2016,05,18,15,41,15.40
2016,05,18,15,42,15.40
2016,05,18,15,43,15.40
2016,05,18,15,44,15.40
2016,05,18,15,45,15.40
2016,05,18,15,46,15.30
2016,05,18,15,47,15.20
2016,05,18,15,48,15.20
2016,05,18,15,49,15.10
2016,05,18,15,50,15.10
2016,05,18,15,51,15.10
2016,05,18,15,52,15.00
2016,05,18,15,53,15.00
2016,05,18,15,54,15.00
2016,05,18,15,55,15.00
2016,05,18,15,56,15.00
2016,05,18,15,57,15.00
2016,05,18,15,58,15.00
2016,05,18,15,59,15.00
2016,05,18,16,00,15.10
2016,05,18,16,01,15.10
2016,05,18,16,02,15.10
2016,05,18,16,03,15.10
2016,05,18,16,04,15.00
2016,05,18,16,05,15.00
2016,05,18,16,06,15.00
2016,05,18,16,07,15.00
2016,05,18,16,08,14.90
2016,05,18,16,09,14.90
2016,05,18,16,10,14.90
2016,05,18,16,11,14.90
2016,05,18,16,12,14.90
2016,05,18,16,13,14.90
2016,05,18,16,14,14.90
2016,05,18,16,15,14.90
2016,05,18,16,16,14.80
2016,05,18,16,17,14.80
2016,05,18,16,18,14.80
2016,05,18,16,19,14.80
2016,05,18,16,20,14.80
2016,05,18,16,21,14.70
2016,05,18,16,22,14.70
2016,05,18,16,23,14.70
2016,05,18,16,24,14.80
2016,05,18,16,25,14.80
2016,05,18,16,26,14.80
2016,05,18,16,27,14.80
2016,05,18,16,28,14.80
2016,05,18,16,29,14.80
2016,05,18,16,30,14.80
2016,05,18,16,31,14.80
2016,05,18,16,32,14.90
2016,05,18,16,33,14.90
2016,05,18,16,34,15.00
2016,05,18,16,35,15.00
2016,05,18,16,36,15.10
2016,05,18,16,37,15.10
2016,05,18,16,38,15.20
2016,05,18,16,39,15.20
2016,05,18,16,40,15.20
2016,05,18,16,41,15.20
2016,05,18,16,42,15.20
2016,05,18,16,43,15.30
2016,05,18,16,44,15.30
2016,05,18,16,45,15.20
2016,05,18,16,46,15.20
2016,05,18,16,47,15.30
2016,05,18,16,48,15.30
2016,05,18,16,49,15.30
2016,05,18,16,50,15.30
2016,05,18,16,51,15.30
2016,05,18,16,52,15.30
2016,05,18,16,53,15.30
2016,05,18,16,54,15.30
2016,05,18,16,55,15.30
2016,05,18,16,56,15.30
2016,05,18,16,57,15.40
2016,05,18,16,58,15.40
2016,05,18,16,59,15.50
2016,05,18,17,00,15.60
2016,05,18,17,01,15.70
2016,05,18,17,02,15.80
2016,05,18,17,03,15.90
2016,05,18,17,04,16.00
2016,05,18,17,05,16.10
2016,05,18,17,06,16.20
2016,05,18,17,07,16.20
2016,05,18,17,08,16.20
2016,05,18,17,09,16.20
2016,05,18,17,10,16.20
2016,05,18,17,11,16.10
2016,05,18,17,12,16.10
2016,05,18,17,13,16.00
2016,05,18,17,14,16.00
2016,05,18,17,15,15.90
2016,05,18,17,16,15.90
2016,05,18,17,17,15.90
2016,05,18,17,18,15.90
2016,05,18,17,19,15.80